Location: Banff
(51.1667°N, 115.5667°W)
Time: 20:32:48
(UTC+00:00)

Vanguard 1 Rocket - Pass Details

Date: 04 December 2020
Orbit: 655 x 4221 km, 34.3° (Epoch: 17 January)

Event Time Altitude Azimuth Distance (km) Brightness Sun altitude
Rises 06:02:35 0° 204° (SSW) 7,463 11.9 -56.3°
Enters shadow 06:04:21 - 202° (SSW) 7,255 11.8 -56.4°
Exits shadow 06:46:59 10° 92° (E) 6,866 11.7 -59.8°
Sets 06:52:15 0° 84° (E) 7,481 12.0 -60.1°
